Retour au catalogue

STARLINK-36784

ActifCommunicationsVLEO
NORAD 67877·PAYLOAD·🇺🇸 United States

Lancé Feb 20, 2026 depuis Vandenberg Space Force Base

Loading…

Prochains Passages (prochaines 24 heures)

TLE

FraisSource: CelesTrak SupGP

Époque: Sep 15, 2026, 03:25 UTC

1 67877C 26034AD  26258.14284722  .00000394  00000+0  11643-4 0  2585
2 67877  53.1590  42.8835 0000850  84.0087 193.6081 15.34370014    17

Suivez STARLINK-36784 en temps réel avec AllMySat

Download on the App Store